Latest Weather Observations for Darwin Airport

IDD60801

Issued at 10:01 am CST Thursday 23 February 2017 (issued every 30 minutes, with the page automatically refreshed every 10 minutes)

About weather observations | Map of weather stations | Latest weather observations for NT | Other Formats
Station Details ID: 014015 Name: DARWIN AIRPORT Lat: -12.42 Lon: 130.89 Height: 30.4 m
Data from the previous 72 hours. | See also: Recent months at Darwin Airport
Date/Time
CST
Temp
°C
App
Temp
°C
Dew
Point
°C
Rel
Hum
%
Delta-T
°C
Wind Press
QNH
hPa
Press
MSL
hPa
Rain since
9am
mm
Dir  Spd
km/h
Gust
km/h
Spd
kts
Gust
kts
23/09:30am 30.5 34.0 23.6 66 4.8 W 11 13 6 7 1010.4 1010.2 0.0
23/09:00am 29.3 32.7 24.0 73 3.7 WSW 13 17 7 9 1010.4 1010.2 0.0
23/08:30am 28.8 33.4 24.7 78 2.9 WSW 9 11 5 6 1010.3 1010.1 0.0
23/08:00am 28.0 32.4 24.4 81 2.5 SW 9 11 5 6 1009.9 1009.7 0.0
23/07:30am 27.2 31.5 24.3 84 2.0 SW 9 11 5 6 1009.7 1009.5 0.0
23/07:00am 26.2 30.9 24.3 89 1.3 SW 7 9 4 5 1009.5 1009.3 0.0
23/06:30am 26.2 30.9 24.3 89 1.3 SSW 7 11 4 6 1009.4 1009.1 0.0
23/06:00am 26.3 31.0 24.3 89 1.4 SW 7 9 4 5 1009.1 1008.8 0.0
23/05:30am 26.5 31.0 24.0 86 1.7 SW 7 9 4 5 1008.9 1008.6 0.0
23/05:00am 26.5 31.2 24.0 86 1.7 WSW 6 7 3 4 1008.9 1008.6 0.0
23/04:30am 26.2 30.9 24.0 88 1.5 WSW 6 7 3 4 1008.8 1008.5 0.0
23/04:00am 26.3 30.8 24.0 87 1.6 SW 7 9 4 5 1008.6 1008.3 0.0
23/03:30am 26.7 31.4 23.9 84 1.9 WSW 6 7 3 4 1008.3 1008.0 0.0
23/03:00am 26.2 30.8 24.2 89 1.4 WSW 7 11 4 6 1008.3 1008.0 0.0
23/02:30am 27.1 31.7 23.8 82 2.3 WSW 6 9 3 5 1008.4 1008.1 0.0
23/02:00am 27.2 31.8 24.2 84 2.1 WSW 7 9 4 5 1008.8 1008.5 0.0
23/01:30am 27.3 31.9 24.1 83 2.2 WSW 7 11 4 6 1009.3 1009.0 0.0
23/01:00am 27.4 31.9 23.9 81 2.4 WSW 7 9 4 5 1009.8 1009.6 0.0
23/12:30am 27.7 31.7 23.8 79 2.7 WSW 9 11 5 6 1010.3 1010.1 0.0
23/12:00am 27.9 31.5 23.8 78 2.8 WSW 11 13 6 7 1010.7 1010.5 0.0
 
Date/Time
CST
Temp
°C
App
Temp
°C
Dew
Point
°C
Rel
Hum
%
Delta-T
°C
Wind Press
QNH
hPa
Press
MSL
hPa
Rain since
9am
mm
Dir  Spd
km/h
Gust
km/h
Spd
kts
Gust
kts
22/11:30pm 28.0 32.6 24.1 79 2.7 WSW 7 9 4 5 1011.0 1010.8 0.0
22/11:00pm 28.1 32.3 24.1 79 2.8 WSW 9 11 5 6 1010.8 1010.6 0.0
22/10:30pm 28.3 32.6 24.3 79 2.8 WSW 9 13 5 7 1010.7 1010.5 0.0
22/10:00pm 28.5 32.2 24.5 79 2.8 WSW 13 20 7 11 1010.5 1010.3 0.0
22/09:30pm 28.7 32.7 24.4 77 3.0 WSW 11 15 6 8 1010.3 1010.1 0.0
22/09:00pm 28.9 32.7 24.1 75 3.3 WSW 11 17 6 9 1010.0 1009.8 0.0
22/08:30pm 29.1 32.6 24.2 75 3.4 WSW 13 20 7 11 1009.7 1009.5 0.0
22/08:00pm 29.1 32.5 24.1 74 3.5 W 13 19 7 10 1009.4 1009.1 0.0
22/07:30pm 29.4 31.6 23.3 69 4.2 W 17 22 9 12 1009.0 1008.7 0.0
22/07:00pm 29.9 32.6 23.4 68 4.5 W 15 20 8 11 1008.8 1008.5 0.0
22/06:30pm 30.7 32.7 23.0 63 5.3 W 17 24 9 13 1008.4 1008.1 0.0
22/06:00pm 31.6 33.4 23.5 62 5.6 WNW 20 28 11 15 1008.1 1007.8 0.0
22/05:30pm 31.4 33.2 23.5 63 5.5 W 20 28 11 15 1007.8 1007.5 0.0
22/05:00pm 32.5 34.3 24.2 61 5.8 WNW 22 28 12 15 1007.8 1007.5 0.0
22/04:30pm 32.5 33.7 23.9 60 6.0 WNW 24 32 13 17 1007.8 1007.5 0.0
22/04:00pm 33.0 34.2 24.5 61 6.0 WNW 26 32 14 17 1007.9 1007.6 0.0
22/03:30pm 33.1 34.1 24.1 59 6.3 WNW 26 32 14 17 1008.1 1007.8 0.0
22/03:00pm 33.2 34.3 24.4 60 6.2 WNW 26 32 14 17 1008.3 1008.0 0.0
22/02:30pm 33.1 34.4 24.1 59 6.3 WNW 24 30 13 16 1008.5 1008.2 0.0
22/02:00pm 33.1 34.1 23.5 57 6.7 WNW 24 30 13 16 1008.9 1008.6 0.0
22/01:30pm 33.2 35.1 23.4 56 6.8 W 19 26 10 14 1009.4 1009.1 0.0
22/01:00pm 32.6 33.6 23.5 58 6.3 WNW 24 28 13 15 1009.9 1009.7 0.0
22/12:30pm 32.6 35.2 24.0 60 6.0 W 17 26 9 14 1010.4 1010.2 0.0
22/12:00pm 32.2 34.2 22.9 58 6.4 WNW 17 26 9 14 1010.8 1010.6 0.0
22/11:30am 32.3 34.8 23.2 58 6.3 WNW 15 20 8 11 1011.1 1010.9 0.0
22/11:00am 31.8 34.7 23.1 60 6.0 WNW 13 17 7 9 1011.3 1011.1 0.0
22/10:30am 31.2 34.1 22.4 59 6.0 W 11 15 6 8 1011.5 1011.3 0.0
22/10:00am 30.8 34.2 23.3 64 5.2 WSW 11 17 6 9 1011.6 1011.4 0.0
22/09:30am 30.0 33.1 23.6 68 4.4 WSW 13 19 7 10 1011.7 1011.5 0.0
22/09:00am 29.2 32.7 24.2 74 3.5 WSW 13 19 7 10 1011.9 1011.7 0.0
22/08:30am 28.5 32.8 24.9 81 2.5 SW 11 15 6 8 1011.7 1011.5 0.0
22/08:00am 28.0 32.9 25.2 85 2.0 SW 9 11 5 6 1011.5 1011.3 0.0
22/07:30am 26.9 32.2 25.3 91 1.1 SW 7 9 4 5 1011.1 1010.9 0.0
22/07:00am 25.5 30.6 24.6 95 0.6 SW 6 6 3 3 1010.9 1010.7 0.0
22/06:30am 25.2 30.1 24.3 95 0.6 WSW 6 6 3 3 1010.5 1010.3 0.0
22/06:00am 25.5 30.2 24.3 93 0.8 WSW 7 7 4 4 1010.3 1010.1 0.0
22/05:30am 26.1 31.2 24.7 92 1.0 WSW 6 6 3 3 1010.1 1009.9 0.0
22/05:00am 26.2 31.1 24.6 91 1.1 WSW 7 9 4 5 1009.8 1009.6 0.0
22/04:30am 26.4 31.4 24.5 89 1.3 WSW 6 7 3 4 1009.4 1009.1 0.0
22/04:00am 26.1 31.2 24.7 92 1.0 WSW 6 6 3 3 1009.2 1008.9 0.0
22/03:30am 26.6 31.5 24.4 88 1.5 WSW 6 7 3 4 1009.0 1008.7 0.0
22/03:00am 26.7 31.5 24.4 87 1.6 WSW 7 9 4 5 1009.1 1008.8 0.0
22/02:30am 26.7 31.6 24.4 87 1.6 WSW 6 7 3 4 1009.2 1008.9 0.0
22/02:00am 26.8 31.5 24.3 86 1.7 WSW 7 11 4 6 1009.4 1009.1 0.0
22/01:30am 27.1 31.9 24.4 85 1.9 SW 7 9 4 5 1009.6 1009.4 0.0
22/01:00am 27.1 31.7 24.7 87 1.7 SW 9 11 5 6 1009.8 1009.6 0.0
22/12:30am 27.3 32.2 24.7 86 1.8 WSW 7 9 4 5 1010.0 1009.8 0.0
22/12:00am 27.5 32.3 24.5 84 2.1 W 7 7 4 4 1010.4 1010.2 0.0
 
Date/Time
CST
Temp
°C
App
Temp
°C
Dew
Point
°C
Rel
Hum
%
Delta-T
°C
Wind Press
QNH
hPa
Press
MSL
hPa
Rain since
9am
mm
Dir  Spd
km/h
Gust
km/h
Spd
kts
Gust
kts
21/11:30pm 27.5 32.5 24.5 84 2.1 WSW 6 7 3 4 1010.7 1010.5 0.0
21/11:00pm 27.9 32.8 24.3 81 2.5 WSW 6 6 3 3 1010.8 1010.6 0.0
21/10:30pm 28.1 32.7 24.2 79 2.7 WSW 7 9 4 5 1010.7 1010.5 0.0
21/10:00pm 28.1 32.8 23.9 78 2.9 W 6 7 3 4 1010.6 1010.4 0.0
21/09:30pm 28.2 32.9 23.9 77 3.0 W 6 7 3 4 1010.3 1010.1 0.0
21/09:00pm 28.6 32.9 23.7 75 3.4 W 7 11 4 6 1010.0 1009.8 0.0
21/08:30pm 28.6 33.1 24.0 76 3.2 W 7 9 4 5 1009.8 1009.6 0.0
21/08:00pm 28.7 33.0 24.2 76 3.1 WSW 9 11 5 6 1009.4 1009.1 0.0
21/07:30pm 29.0 32.4 24.0 74 3.5 W 13 17 7 9 1009.2 1008.9 0.0
21/07:00pm 29.5 32.9 24.0 72 3.8 W 13 19 7 10 1009.0 1008.7 0.0
21/06:30pm 30.2 32.8 23.9 69 4.4 W 17 22 9 12 1008.7 1008.4 0.0
21/06:00pm 30.9 33.1 24.2 67 4.7 WNW 20 26 11 14 1008.4 1008.1 0.0
21/05:30pm 30.8 32.0 23.9 66 4.8 WNW 24 32 13 17 1008.2 1007.9 0.0
21/05:00pm 31.5 32.6 23.6 63 5.5 W 24 32 13 17 1008.1 1007.8 0.0
21/04:30pm 32.1 33.3 23.8 61 5.8 WNW 24 32 13 17 1008.0 1007.7 0.0
21/04:00pm 32.5 34.3 24.2 61 5.8 WNW 22 28 12 15 1008.0 1007.7 0.0
21/03:30pm 32.9 34.5 24.5 61 5.9 WNW 24 30 13 16 1008.1 1007.8 0.0
21/03:00pm 33.9 32.3 14.0 30 12.2 WNW 15 22 8 12 1008.4 1008.1 0.0
21/02:30pm 33.7 32.4 14.8 32 11.7 WNW 15 20 8 11 1008.8 1008.5 0.0
21/02:00pm 33.4 33.9 16.5 36 10.7 SSW 9 17 5 9 1009.3 1009.0 0.0
21/01:30pm 33.1 33.2 17.5 39 10.0 S 13 20 7 11 1009.8 1009.6 0.0
21/01:00pm 32.7 32.7 16.2 37 10.4 SSW 11 19 6 10 1010.6 1010.4 0.0
21/12:39pm 32.4 33.8 18.6 44 9.0 SW 9 17 5 9 1011.0 1010.8 0.0
21/12:30pm 32.8 33.8 18.7 43 9.2 S 11 17 6 9 1011.1 1010.9 0.0
21/12:00pm 31.6 33.5 20.5 51 7.4 S 11 17 6 9 1011.6 1011.4 0.0
21/11:30am 31.1 33.2 20.1 52 7.3 S 9 13 5 7 1011.8 1011.6 0.0
21/11:00am 30.7 33.2 21.7 58 6.1 S 11 15 6 8 1012.2 1012.0 0.0
21/10:30am 30.2 32.6 20.9 57 6.2 SSW 9 13 5 7 1012.5 1012.3 0.0
21/10:00am 30.2 32.9 22.1 62 5.5 SW 11 17 6 9 1012.5 1012.3 0.0
21/09:30am 29.5 33.0 24.8 76 3.3 SW 15 19 8 10 1012.4 1012.2 0.0
21/09:00am 29.0 32.4 24.7 77 3.0 WSW 15 19 8 10 1012.3 1012.1 0.0
21/08:30am 28.3 32.3 25.0 82 2.3 SW 13 20 7 11 1011.8 1011.6 0.0
21/08:00am 27.6 32.7 25.5 88 1.5 SW 9 15 5 8 1011.3 1011.1 0.0
21/07:30am 27.2 32.6 25.5 90 1.2 SW 7 9 4 5 1010.8 1010.6 0.0
21/07:00am 26.3 31.8 25.3 94 0.7 SW 6 7 3 4 1010.3 1010.1 0.0
21/06:30am 26.1 31.5 25.1 94 0.7 SW 6 9 3 5 1009.6 1009.4 0.0
21/06:00am 26.2 31.5 25.3 95 0.6 SW 7 9 4 5 1009.3 1009.0 0.0
21/05:30am 26.5 32.1 25.4 94 0.8 SW 6 7 3 4 1008.9 1008.6 0.0
21/05:00am 26.7 32.2 25.6 94 0.8 SW 7 9 4 5 1008.7 1008.4 0.0
21/04:30am 26.7 32.0 25.3 92 1.0 SW 7 11 4 6 1008.5 1008.2 0.0
21/04:00am 26.8 32.1 25.2 91 1.1 SW 7 9 4 5 1008.3 1008.0 0.0
21/03:30am 26.9 32.3 25.2 90 1.2 SW 6 7 3 4 1008.4 1008.1 0.0
21/03:00am 27.1 32.4 25.2 89 1.3 WSW 7 9 4 5 1008.7 1008.4 0.0
21/02:30am 27.4 32.2 25.1 87 1.6 WSW 9 13 5 7 1008.8 1008.5 0.0
21/02:00am 27.5 32.4 25.2 87 1.6 SW 9 13 5 7 1008.9 1008.6 0.0
21/01:30am 27.6 32.2 25.3 87 1.6 SW 11 15 6 8 1009.1 1008.8 0.0
21/01:00am 27.7 32.6 25.3 87 1.7 SW 9 13 5 7 1009.2 1008.9 0.0
21/12:30am 27.9 33.0 25.0 84 2.0 SW 7 11 4 6 1009.6 1009.4 0.0
21/12:00am 27.9 32.3 25.0 84 2.0 SW 11 15 6 8 1009.8 1009.6 0.0
 
Date/Time
CST
Temp
°C
App
Temp
°C
Dew
Point
°C
Rel
Hum
%
Delta-T
°C
Wind Press
QNH
hPa
Press
MSL
hPa
Rain since
9am
mm
Dir  Spd
km/h
Gust
km/h
Spd
kts
Gust
kts
20/11:30pm 27.9 33.0 24.9 84 2.1 WSW 7 9 4 5 1009.9 1009.7 0.0
20/11:00pm 27.8 32.5 24.9 84 2.0 W 9 11 5 6 1009.9 1009.7 0.0
20/10:30pm 27.9 32.2 24.9 84 2.1 W 11 13 6 7 1010.0 1009.8 0.0
20/10:00pm 28.0 32.7 25.0 84 2.1 W 9 11 5 6 1009.8 1009.6 0.0
20/09:30pm 28.2 33.1 25.2 84 2.1 W 9 11 5 6 1009.7 1009.5 0.0
20/09:00pm 28.4 33.4 25.4 84 2.1 WNW 9 11 5 6 1009.4 1009.1 0.0
20/08:30pm 28.6 33.5 25.3 82 2.3 W 9 11 5 6 1009.0 1008.7 0.0
20/08:00pm 28.9 34.1 25.7 83 2.3 W 9 11 5 6 1008.7 1008.4 0.0
20/07:30pm 29.0 33.5 25.8 83 2.3 WNW 13 17 7 9 1008.4 1008.1 0.0
20/07:00pm 29.5 33.2 25.1 77 3.1 WNW 15 20 8 11 1007.9 1007.6 0.0
20/06:30pm 30.2 33.2 24.6 72 3.9 WNW 17 22 9 12 1007.5 1007.2 0.0
20/06:00pm 30.7 33.3 24.6 70 4.3 WNW 19 24 10 13 1007.1 1006.8 0.0
20/05:30pm 30.9 32.9 23.9 66 4.9 NW 20 24 11 13 1006.7 1006.4 0.0
20/05:00pm 31.1 32.9 23.6 64 5.2 WNW 20 24 11 13 1006.3 1006.0 0.0
20/04:30pm 31.2 33.4 24.0 65 5.0 WNW 19 24 10 13 1006.2 1005.9 0.0
20/04:00pm 31.6 34.1 24.8 67 4.8 WNW 20 24 11 13 1006.1 1005.8 0.0
20/03:30pm 31.4 33.9 24.4 66 4.9 WNW 19 24 10 13 1006.4 1006.1 0.0
20/03:00pm 31.4 34.4 24.6 67 4.8 WNW 17 22 9 12 1006.6 1006.3 0.0
20/02:30pm 31.3 34.7 24.6 67 4.7 WSW 15 20 8 11 1007.0 1006.7 0.0
20/02:00pm 32.9 33.5 22.1 53 7.4 W 22 26 12 14 1007.3 1007.0 0.0
20/01:30pm 31.9 34.3 21.6 54 7.0 WSW 11 22 6 12 1007.6 1007.3 0.0
20/01:00pm 32.2 35.7 22.8 57 6.5 W 9 15 5 8 1008.2 1007.9 0.0
20/12:30pm 31.4 34.4 21.3 55 6.8 SSW 7 13 4 7 1008.7 1008.4 0.0
20/12:00pm 30.8 35.4 24.1 67 4.7 WSW 7 17 4 9 1008.9 1008.6 0.0
20/11:54am 30.1 34.4 23.6 68 4.5 SW 7 17 4 9 1008.9 1008.6 0.0
20/11:30am 29.9 34.6 24.3 72 3.9 WSW 7 11 4 6 1009.3 1009.0 0.0
20/11:00am 29.0 34.1 24.1 75 3.4 WNW 4 7 2 4 1009.7 1009.5 0.0
20/10:30am 28.8 33.5 23.4 72 3.7 W 4 6 2 3 1010.0 1009.8 0.0

Other Formats:

Comma delimited format used in spreadsheet applications
http://www.bom.gov.au/fwo/IDD60801/IDD60801.94120.axf

JavaScript Object Notation format (JSON) in row-major order
http://www.bom.gov.au/fwo/IDD60801/IDD60801.94120.json